Overview Statistics Trail Chart Weather Telemetry Raw packets
 

This is the latest recevied weather packets stored in our database for station/object IW1RID-3. If no packets are shown the sender has not sent any weather packets the latest 10 day(s).

<< 1 2 3 4 5 >>
Time Temp. Humidity Pressure Rain* Wind** Luminosity Snow
1788635401 26.11° C 82% 1076 hPa - - - -
1788634197 26.11° C 82% 1075.9 hPa - - - -
1788632992 26.11° C 82% 1075.6 hPa - - - -
1788631787 26.11° C 83% 1075.5 hPa - - - -
1788630581 26.11° C 82% 1075.4 hPa - - - -
1788629376 26.67° C 80% 1075.2 hPa - - - -
1788628171 27.22° C 77% 1075.2 hPa - - - -
1788626965 27.78° C 74% 1075.2 hPa - - - -
1788625761 27.78° C 73% 1075.4 hPa - - - -
1788624555 28.89° C 71% 1075.4 hPa - - - -
1788623349 27.78° C 74% 1075.4 hPa - - - -
1788620939 28.89° C 70% 1075.7 hPa - - - -
1788619735 28.89° C 70% 1075.8 hPa - - - -
1788618531 28.33° C 71% 1075.8 hPa - - - -
1788617326 28.89° C 67% 1076.1 hPa - - - -
1788616120 28.89° C 68% 1076.2 hPa - - - -
1788614915 29.44° C 66% 1076.3 hPa - - - -
1788613711 29.44° C 67% 1076.3 hPa - - - -
1788612506 28.89° C 69% 1076.3 hPa - - - -
1788612301 28.89° C 68% 1076.4 hPa - - - -
1788611097 29.44° C 65% 1076.5 hPa - - - -
1788609892 28.89° C 68% 1076.5 hPa - - - -
1788608688 29.44° C 65% 1076.5 hPa - - - -
1788607484 29.44° C 66% 1076.5 hPa - - - -
1788606279 29.44° C 66% 1076.5 hPa - - - -

* Rain since midnight (hover to see other rain measurements)
** Current wind speed in m/s (hover to see current wind gust speed)